Home   Weather   Khon Kaen   Past weeks
Flag for Thailand

Past Weather in Khon Kaen, Thailand — Yesterday and Last 2 Weeks

Now
75 °F

Thunderstorms. Passing clouds.


Feels Like: 73 °F
Forecast: 93 / 77 °F
Wind: 1 mph from North

Location: Khon Kaen Airport

Current Time: May 23, 2019 at 10:02:06 pm

Latest Report: May 23, 2019 at 9:00 pm


Visibility: 4 mi

Pressure: 29.86 "Hg

Humidity: 100%

Dew Point: 75 °F

Location of Khon KaenLocation

Past Weather in Khon Kaen — Graph

°F

Khon Kaen Temperature Yesterday

Maximum temperature yesterday: 95 °F (at 4:00 pm)
Minimum temperature yesterday: 73 °F (at 5:00 am)
Average temperature yesterday: 82 °F

High & Low Weather Summary for the Past Weeks

 TemperatureHumidityPressure
High102 °F (May 19, 3:00 pm)100% (May 8, 10:00 pm)29.86 "Hg (May 8, 10:00 pm)
Low73 °F (May 22, 5:00 am)37% (May 20, 2:00 pm)29.56 "Hg (May 11, 1:00 am)
Average85 °F75%29.75 "Hg
* Reported May 8 8:00 pm — May 23 8:00 pm, Khon Kaen. Weather by CustomWeather, © 2019

Note: Actual official high and low records may vary slightly from our data, if they occured in-between our weather recording intervals... More about our weather records

Advertising

Khon Kaen Weather History for the Previous 24 Hours

Scroll right to see more
 ConditionsComfort  
Time TempWeatherWind HumidityBarometerVisibility
8:00 pm
Thu, May 23
73 °FThunderstorms. Partly cloudy.6 mph100%29.80 "Hg4 mi
7:00 pm75 °FThunderstorms. Fog.8 mph100%29.83 "Hg2 mi
6:00 pm81 °FStrong thunderstorms. Broken clouds.7 mph79%29.74 "Hg1 mi
5:00 pm93 °FThundershowers. Partly sunny.9 mph63%29.68 "HgN/A
4:00 pm95 °FPartly sunny.6 mph50%29.71 "HgN/A
3:00 pm97 °FScattered showers. Scattered clouds.5 mph50%29.71 "HgN/A
2:00 pm95 °FPartly sunny.6 mph53%29.74 "HgN/A
1:00 pm95 °FPartly sunny.5 mph56%29.77 "HgN/A
12:00 pm93 °FPartly sunny.5 mph59%29.80 "HgN/A
11:00 am91 °FPartly sunny.3 mph63%29.83 "HgN/A
10:00 am90 °FScattered clouds.6 mph63%29.86 "HgN/A
9:00 am88 °FScattered clouds.7 mph70%29.86 "Hg6 mi
8:00 am86 °FScattered clouds.5 mph70%29.83 "Hg6 mi
7:00 am82 °FScattered clouds.5 mph84%29.80 "Hg5 mi
6:00 am79 °FScattered clouds.3 mph94%29.80 "Hg6 mi
5:00 am79 °FPassing clouds.2 mph89%29.80 "Hg6 mi
4:00 am79 °FPartly cloudy.2 mph94%29.80 "Hg6 mi
3:00 am79 °FPassing clouds.1 mph89%29.80 "Hg6 mi
2:00 am79 °FPassing clouds.1 mph94%29.80 "Hg6 mi
1:00 am81 °FPassing clouds.1 mph89%29.80 "HgN/A
12:00 am81 °FPassing clouds.1 mph89%29.83 "HgN/A
11:00 pm
Wed, May 22
82 °FPassing clouds.3 mph79%29.86 "HgN/A
10:00 pm82 °FPassing clouds.3 mph79%29.83 "HgN/A
Weather by CustomWeather, © 2019

See weather overview